When you browse on this site, cookies collect data to enhance your experience and personalize the content and advertising you see.
Visit our Privacy Policy to learn more. By continuing to use the site, you agree to this use of cookies and data.
  • In Romania
  • List of Countries
  • For 7 days
  • Water Temperature
  • Satellite Maps
  • Weather Map
  • Weather Widgets
  • user-avatar
    Login

    Hourly Weather Albany

    Today, 10 December, Monday

    Time Temperature Precipitation Wind Pressure Humidity
    00:00 -2°C° 0 mm 1 mps 763 mmHg 72%
    01:00 -4°C° 0 mm 2 mps 763 mmHg 74%
    02:00 -4°C° 0 mm 2 mps 763 mmHg 78%
    03:00 -4°C° 0 mm 2 mps 763 mmHg 82%
    04:00 -2°C° 0 mm 1 mps 763 mmHg 85%
    05:00 -2°C° 0 mm 1 mps 763 mmHg 86%
    06:00 -5°C° 0 mm 2 mps 763 mmHg 87%
    07:00 -5°C° 0 mm 2 mps 763 mmHg 87%
    08:00 -4°C° 0 mm 2 mps 763 mmHg 79%
    09:00 -3°C° 0 mm 2 mps 763 mmHg 71%
    10:00 -2°C° 0 mm 2 mps 764 mmHg 63%
    11:00 -1°C° 0 mm 2 mps 763 mmHg 59%
    12:00 -1°C° 0 mm 2 mps 763 mmHg 55%
    13:00 +1°C° 0 mm 2 mps 763 mmHg 51%
    14:00 -1°C° 0 mm 2 mps 763 mmHg 53%
    15:00 -1°C° 0 mm 2 mps 763 mmHg 56%
    16:00 0°C° 0 mm 1 mps 763 mmHg 59%
    17:00 -1°C° 0 mm 1 mps 763 mmHg 61%
    18:00 -1°C° 0 mm 1 mps 764 mmHg 64%
    19:00 -2°C° 0 mm 1 mps 764 mmHg 67%
    20:00 -2°C° 0 mm 1 mps 764 mmHg 66%
    21:00 -3°C° 0 mm 0 mps 764 mmHg 66%
    22:00 -4°C° 0 mm 0 mps 764 mmHg 65%
    23:00 -4°C° 0 mm 0 mps 764 mmHg 65%

    Tomorrow, 11 December, Tuesday

    Time Temperature Precipitation Wind Pressure Humidity
    00:00 -4°C° 0 mm 0 mps 764 mmHg 65%
    01:00 -4°C° 0 mm 0 mps 764 mmHg 66%
    02:00 -4°C° 0 mm 0 mps 764 mmHg 66%
    03:00 -4°C° 0 mm 0 mps 764 mmHg 66%
    04:00 -4°C° 0 mm 0 mps 764 mmHg 67%
    05:00 -5°C° 0 mm 0 mps 764 mmHg 67%
    06:00 -5°C° 0 mm 0 mps 764 mmHg 67%
    07:00 -5°C° 0 mm 0 mps 764 mmHg 67%
    08:00 -2°C° 0 mm 1 mps 763 mmHg 62%
    09:00 -1°C° 0 mm 1 mps 763 mmHg 56%
    10:00 0°C° 0 mm 1 mps 763 mmHg 50%
    11:00 +1°C° 0 mm 1 mps 762 mmHg 48%
    12:00 +2°C° 0 mm 1 mps 761 mmHg 46%
    13:00 +3°C° 0 mm 1 mps 761 mmHg 44%
    14:00 +2°C° 0 mm 1 mps 760 mmHg 49%
    15:00 +2°C° 0 mm 1 mps 760 mmHg 54%
    16:00 +1°C° 0 mm 1 mps 760 mmHg 59%
    17:00 0°C° 0 mm 1 mps 760 mmHg 62%
    18:00 0°C° 0 mm 1 mps 760 mmHg 65%
    19:00 -1°C° 0 mm 1 mps 761 mmHg 68%
    20:00 -1°C° 0 mm 1 mps 760 mmHg 70%
    21:00 -1°C° 0 mm 1 mps 760 mmHg 71%
    22:00 -2°C° 0 mm 0 mps 760 mmHg 72%
    23:00 -1°C° 0 mm 1 mps 760 mmHg 75%

    Day after tomorrow, 12 December, Wednesday

    Time Temperature Precipitation Wind Pressure Humidity
    00:00 -1°C° 0 mm 1 mps 760 mmHg 78%
    01:00 -1°C° 0 mm 1 mps 760 mmHg 81%
    02:00 -1°C° 0 mm 1 mps 760 mmHg 83%
    03:00 -1°C° 0 mm 1 mps 760 mmHg 85%
    04:00 -1°C° 0 mm 1 mps 760 mmHg 87%
    05:00 -2°C° 0 mm 1 mps 761 mmHg 87%
    06:00 -2°C° 0 mm 1 mps 762 mmHg 88%
    07:00 -2°C° 0 mm 1 mps 763 mmHg 88%
    08:00 -3°C° 0 mm 2 mps 763 mmHg 82%
    09:00 -2°C° 0 mm 2 mps 764 mmHg 76%
    10:00 -1°C° 0 mm 2 mps 764 mmHg 70%
    11:00 +1°C° 0 mm 2 mps 764 mmHg 67%
    12:00 0°C° 0 mm 3 mps 764 mmHg 63%
    13:00 0°C° 0 mm 3 mps 765 mmHg 60%
    14:00 +1°C° 0 mm 2 mps 765 mmHg 61%
    15:00 -1°C° 0 mm 2 mps 766 mmHg 62%
    16:00 -2°C° 0 mm 2 mps 766 mmHg 64%
    17:00 0°C° 0 mm 1 mps 767 mmHg 63%
    18:00 -1°C° 0 mm 1 mps 768 mmHg 63%
    19:00 -2°C° 0 mm 1 mps 769 mmHg 62%
    20:00 -2°C° 0 mm 1 mps 769 mmHg 59%
    21:00 -2°C° 0 mm 1 mps 769 mmHg 55%
    22:00 -2°C° 0 mm 1 mps 769 mmHg 52%
    23:00 -3°C° 0 mm 1 mps 770 mmHg 52%

    13 December, Thursday

    Time Temperature Precipitation Wind Pressure Humidity
    00:00 -3°C° 0 mm 1 mps 770 mmHg 52%
    01:00 -3°C° 0 mm 1 mps 770 mmHg 52%
    02:00 -3°C° 0 mm 1 mps 770 mmHg 53%
    03:00 -3°C° 0 mm 1 mps 770 mmHg 54%
    04:00 -3°C° 0 mm 1 mps 770 mmHg 55%
    05:00 -3°C° 0 mm 1 mps 770 mmHg 56%
    06:00 -3°C° 0 mm 1 mps 771 mmHg 57%
    07:00 -5°C° 0 mm 2 mps 771 mmHg 59%
    08:00 -4°C° 0 mm 2 mps 771 mmHg 58%
    09:00 -3°C° 0 mm 2 mps 771 mmHg 58%
    10:00 -1°C° 0 mm 3 mps 771 mmHg 58%
    11:00 0°C° 0 mm 3 mps 770 mmHg 61%
    12:00 +1°C° 0 mm 3 mps 770 mmHg 63%
    13:00 +1°C° 0 mm 4 mps 769 mmHg 65%
    14:00 +2°C° 0 mm 3 mps 769 mmHg 71%
    15:00 +2°C° 0 mm 3 mps 769 mmHg 76%
    16:00 +2°C° 0 mm 2 mps 768 mmHg 81%
    17:00 +2°C° 0.1 mm 2 mps 768 mmHg 85%
    18:00 +2°C° 0.1 mm 2 mps 768 mmHg 88%
    19:00 +2°C° 0.1 mm 2 mps 768 mmHg 91%
    20:00 +2°C° 0.1 mm 2 mps 768 mmHg 92%
    21:00 +2°C° 0.1 mm 1 mps 768 mmHg 93%
    22:00 +2°C° 0.1 mm 1 mps 768 mmHg 94%
    23:00 +2°C° 0 mm 1 mps 768 mmHg 94%

    14 December, Friday

    Time Temperature Precipitation Wind Pressure Humidity
    00:00 +2°C° 0 mm 1 mps 767 mmHg 94%
    01:00 +1°C° 0 mm 1 mps 767 mmHg 94%
    02:00 +1°C° 0 mm 1 mps 767 mmHg 94%
    03:00 +1°C° 0 mm 1 mps 767 mmHg 93%
    04:00 +1°C° 0 mm 1 mps 767 mmHg 93%
    05:00 +1°C° 0 mm 1 mps 767 mmHg 93%
    06:00 +1°C° 0 mm 1 mps 767 mmHg 93%
    07:00 +1°C° 0 mm 1 mps 767 mmHg 92%
    08:00 +2°C° 0 mm 1 mps 767 mmHg 87%
    09:00 +4°C° 0 mm 1 mps 766 mmHg 81%
    10:00 +4°C° 0 mm 2 mps 766 mmHg 76%
    11:00 +5°C° 0 mm 2 mps 765 mmHg 75%
    12:00 +7°C° 0 mm 2 mps 764 mmHg 73%
    13:00 +8°C° 0 mm 3 mps 763 mmHg 72%
    14:00 +7°C° 0 mm 3 mps 763 mmHg 79%
    15:00 +6°C° 0 mm 2 mps 763 mmHg 85%
    16:00 +6°C° 0 mm 2 mps 763 mmHg 91%
    17:00 +5°C° 0.3 mm 2 mps 763 mmHg 93%
    18:00 +5°C° 0.3 mm 2 mps 763 mmHg 94%
    19:00 +6°C° 0.3 mm 1 mps 763 mmHg 96%
    20:00 +6°C° 0.5 mm 1 mps 762 mmHg 96%
    21:00 +6°C° 0.5 mm 1 mps 762 mmHg 96%
    22:00 +6°C° 0.5 mm 1 mps 762 mmHg 97%
    23:00 +6°C° 0.8 mm 1 mps 761 mmHg 97%

    15 December, Saturday

    Time Temperature Precipitation Wind Pressure Humidity
    00:00 +6°C° 0.8 mm 1 mps 761 mmHg 97%
    01:00 +6°C° 0.8 mm 1 mps 760 mmHg 97%
    02:00 +6°C° 2.4 mm 1 mps 760 mmHg 97%
    03:00 +7°C° 2.4 mm 1 mps 760 mmHg 97%
    04:00 +7°C° 2.4 mm 1 mps 760 mmHg 97%
    05:00 +7°C° 1.5 mm 1 mps 760 mmHg 97%
    06:00 +7°C° 1.5 mm 1 mps 760 mmHg 97%
    07:00 +7°C° 1.5 mm 1 mps 761 mmHg 96%
    08:00 +7°C° 0.1 mm 1 mps 761 mmHg 96%
    09:00 +7°C° 0.1 mm 2 mps 761 mmHg 95%
    10:00 +7°C° 0.1 mm 2 mps 761 mmHg 95%
    11:00 +7°C° 0 mm 2 mps 760 mmHg 93%
    12:00 +8°C° 0 mm 3 mps 760 mmHg 91%
    13:00 +7°C° 0 mm 4 mps 759 mmHg 89%
    14:00 +6°C° 0 mm 4 mps 759 mmHg 85%
    15:00 +5°C° 0 mm 3 mps 759 mmHg 81%
    16:00 +4°C° 0 mm 3 mps 759 mmHg 77%
    17:00 +4°C° 0 mm 3 mps 760 mmHg 76%
    18:00 +3°C° 0 mm 3 mps 761 mmHg 76%
    19:00 +2°C° 0 mm 3 mps 761 mmHg 75%
    20:00 +2°C° 0 mm 3 mps 762 mmHg 76%
    21:00 +2°C° 0 mm 2 mps 762 mmHg 77%
    22:00 +2°C° 0 mm 2 mps 763 mmHg 78%
    23:00 +2°C° 0 mm 2 mps 763 mmHg 79%
    Show more